Weather History for Chatham, MA

Change the Weather History Date:

Tuesday, February 18, 2014

  Actual Average Record
Temperature  
Mean Temperature 27 °F -  
Max Temperature 39 °F 37 °F 48 °F (1981)
Min Temperature 15 °F 25 °F 5 °F (1979)
Degree Days  
Heating Degree Days 38    
Moisture  
Dew Point 28 °F    
Average Humidity 87    
Maximum Humidity 97    
Minimum Humidity 64    
Precipitation  
Precipitation 0.15 in - - ()
Sea Level Pressure  
Sea Level Pressure 30.07 in    
Wind  
Wind Speed 9 mph (SSE)    
Max Wind Speed 17 mph    
Max Gust Speed 32 mph    
Visibility 6 miles    
Events Rain , Snow    
Averages and records for this station are not official NWS values.
T = Trace of Precipitation, MM = Missing Value Source: NWS Daily Summary

Daily Weather History Graph

Daily Weather History Graph

Search for Another Location

Airport:

Trip Planner

Search our weather history database for the weather conditions in past years. The results will help you decide how hot, cold, wet, or windy it might be!

Date:

Astronomy

Feb. 18, 2014 Rise Set
Actual Time 6:31 AM EST 5:17 PM EST
Civil Twilight 6:02 AM EST 5:45 PM EST
Nautical Twilight 5:30 AM EST 6:17 PM EST
Astronomical Twilight 4:58 AM EST 6:50 PM EST
Moon 9:11 PM EST (2/18) 7:58 AM EST (2/18)
Length of Visible Light 11h 42m
Length of Day
10h 45m
Waning Gibbous, 87% of the Moon is Illuminated
Feb 18
Waning Gibbous
Feb 22
Last Quarter
Mar 1
New
Mar 8
First Quarter
Mar 16
Full

Hourly Weather History & Observations

Time (EST) Temp. Windchill Dew Point Humidity Pressure Visibility Wind Dir Wind Speed Gust Speed Precip Events Conditions
12:52 AM 18.0 °F 11.1 °F 10.9 °F 74% 30.36 in 10.0 mi WNW 4.6 mph - N/A   Clear
1:52 AM 16.0 °F 7.4 °F 10.9 °F 81% 30.35 in 10.0 mi WNW 5.8 mph - N/A   Clear
2:52 AM 16.0 °F 8.8 °F 12.0 °F 84% 30.36 in 10.0 mi NW 4.6 mph - N/A   Clear
3:52 AM 15.1 °F - 10.9 °F 84% 30.35 in 10.0 mi Calm Calm - N/A   Clear
4:52 AM 16.0 °F 10.4 °F 12.9 °F 88% 30.36 in 10.0 mi SSW 3.5 mph - N/A   Clear
5:52 AM 19.0 °F - 16.0 °F 88% 30.32 in 10.0 mi Calm Calm - N/A   Clear
6:52 AM 21.9 °F 17.2 °F 18.0 °F 85% 30.35 in 10.0 mi South 3.5 mph - N/A   Clear
7:52 AM 28.9 °F 22.8 °F 21.0 °F 72% 30.32 in 10.0 mi SSE 5.8 mph - N/A   Mostly Cloudy
8:52 AM 30.9 °F 24.3 °F 21.0 °F 67% 30.30 in 10.0 mi SE 6.9 mph - N/A   Overcast
9:52 AM 34.0 °F 25.0 °F 23.0 °F 64% 30.27 in 10.0 mi SE 12.7 mph 19.6 mph N/A   Mostly Cloudy
10:52 AM 34.0 °F 24.6 °F 24.1 °F 67% 30.20 in 10.0 mi SE 13.8 mph 24.2 mph N/A   Overcast
11:52 AM 35.1 °F 26.4 °F 26.1 °F 70% 30.16 in 10.0 mi SE 12.7 mph 25.3 mph N/A   Scattered Clouds
12:46 PM 35.6 °F 26.6 °F 28.4 °F 75% 30.13 in 2.5 mi SSE 13.8 mph 24.2 mph 0.00 in Snow Light Snow
12:52 PM 34.0 °F 25.5 °F 30.0 °F 85% 30.13 in 1.0 mi SSE 11.5 mph 24.2 mph 0.00 in Snow Light Snow
12:56 PM 34.0 °F 25.0 °F 30.9 °F 89% 30.12 in 0.8 mi SSE 12.7 mph 24.2 mph 0.01 in Snow Light Snow
1:06 PM 34.0 °F 26.0 °F 30.9 °F 89% 30.11 in 1.0 mi SE 10.4 mph 24.2 mph 0.01 in Snow Light Snow
1:17 PM 34.0 °F 26.0 °F 32.0 °F 92% 30.10 in 1.5 mi SE 10.4 mph 21.9 mph 0.02 in Snow Light Snow
1:41 PM 34.0 °F 24.6 °F 32.0 °F 92% 30.07 in 3.0 mi SE 13.8 mph 21.9 mph 0.03 in Snow Light Snow
1:49 PM 33.8 °F 24.8 °F 32.0 °F 93% 30.06 in 1.8 mi ESE 12.7 mph 25.3 mph 0.03 in Snow Light Snow
1:52 PM 34.0 °F 24.6 °F 32.0 °F 92% 30.07 in 1.8 mi SE 13.8 mph 25.3 mph 0.03 in Snow Light Snow
1:55 PM 34.0 °F 24.2 °F 33.1 °F 96% 30.05 in 2.0 mi ESE 15.0 mph 24.2 mph 0.00 in Snow Light Snow
2:04 PM 35.1 °F 25.5 °F 33.1 °F 92% 30.04 in 4.0 mi ESE 15.0 mph 26.5 mph 0.01 in Snow Light Snow
2:12 PM 35.1 °F 24.8 °F 33.1 °F 92% 30.03 in 3.0 mi SE 17.3 mph 24.2 mph 0.01 in Snow Light Snow
2:25 PM 35.1 °F 25.2 °F 33.1 °F 92% 30.02 in 2.5 mi SE 16.1 mph 29.9 mph 0.02 in Snow Light Snow
2:44 PM 35.1 °F 25.5 °F 33.1 °F 92% 30.00 in 3.0 mi SE 15.0 mph 25.3 mph 0.04 in Snow Light Snow
2:52 PM 35.1 °F 25.2 °F 34.0 °F 96% 30.00 in 3.0 mi SE 16.1 mph 25.3 mph 0.04 in Rain Light Rain
3:27 PM 36.0 °F 29.0 °F 34.0 °F 93% 29.96 in 2.5 mi SE 9.2 mph 24.2 mph 0.04 in Rain Rain
3:33 PM 37.0 °F 28.9 °F 35.1 °F 93% 29.95 in 3.0 mi SE 12.7 mph 19.6 mph 0.05 in Rain Light Rain
3:52 PM 37.9 °F 31.5 °F 35.1 °F 89% 29.93 in 4.0 mi ESE 9.2 mph 18.4 mph 0.07 in Rain Light Rain
4:52 PM 39.0 °F 29.9 °F 37.0 °F 93% 29.84 in 7.0 mi SE 17.3 mph 29.9 mph 0.01 in   Overcast
5:18 PM 39.9 °F 31.8 °F 37.9 °F 93% 29.82 in 6.0 mi SE 15.0 mph 32.2 mph N/A   Overcast
5:26 PM 39.9 °F 32.1 °F 37.9 °F 93% 29.82 in 6.0 mi SSE 13.8 mph 31.1 mph 0.00 in Rain Light Rain
5:52 PM 39.9 °F 32.9 °F 39.0 °F 97% 29.82 in 6.0 mi SSW 11.5 mph 31.1 mph 0.00 in Rain Light Rain
6:25 PM 37.0 °F 28.5 °F 36.0 °F 96% 29.83 in 10.0 mi WSW 13.8 mph 31.1 mph 0.00 in   Partly Cloudy
6:50 PM 35.6 °F 26.2 °F 33.8 °F 93% 29.85 in 10.0 mi WSW 15.0 mph 29.9 mph 0.00 in   Scattered Clouds
6:52 PM 36.0 °F 27.1 °F 34.0 °F 93% 29.86 in 10.0 mi WSW 13.8 mph 29.9 mph 0.00 in   Scattered Clouds
7:52 PM 34.0 °F 24.6 °F 30.9 °F 89% 29.90 in 10.0 mi WSW 13.8 mph 27.6 mph N/A   Clear
8:52 PM 32.0 °F 22.1 °F 28.9 °F 88% 29.92 in 10.0 mi WSW 13.8 mph 21.9 mph N/A   Clear
9:52 PM 30.0 °F 21.1 °F 28.0 °F 92% 29.95 in 10.0 mi WSW 10.4 mph 21.9 mph N/A   Partly Cloudy
10:52 PM 30.0 °F 20.5 °F 26.1 °F 85% 29.98 in 10.0 mi West 11.5 mph 23.0 mph N/A   Partly Cloudy
11:52 PM 30.0 °F 20.0 °F 25.0 °F 82% 30.01 in 10.0 mi West 12.7 mph 21.9 mph N/A   Clear